Simultaneous Nadir Overpasses (SNOs) Predictions

Prediction of SNOs between NOAA-19 and METOP-C Satellite Orbit:

Table of predicted SNOs for the next 14.0 days since TLE Epoch: 3/20/2020
Index Date (NOAA-19) Time (NOAA-19) Lat,Lon (NOAA-19) SZA (NOAA-19 ) Date (METOP-C) Time (METOP-C) Lat,Lon (METOP-C) SZA (METOP-C ) Distance(km) Time Diff (sec)
1 03/20/2020 11:48:04 79.82, 24.26 80.22 03/20/2020 11:47:04 79.84, 24.38 80.23 3.45 60
2 03/31/2020 07:04:44 -79.86, -84.93 103.92 03/31/2020 07:05:45 -79.89, -84.88 103.88 3.11 61
3 03/31/2020 07:55:42 79.87, 82.26 76.07 03/31/2020 07:56:27 79.86, 82.15 76.06 2.40 45
4 03/31/2020 08:46:45 -79.87,-110.54 103.95 03/31/2020 08:47:08 -79.84,-110.63 103.97 3.19 23
5 03/31/2020 09:37:42 79.85, 56.96 76.04 03/31/2020 09:37:48 79.87, 56.99 76.07 2.86 6
6 03/31/2020 10:28:45 -79.85,-135.85 103.98 03/31/2020 10:28:29 -79.86,-135.79 103.97 1.58 16
7 03/31/2020 11:19:43 79.86, 31.36 76.01 03/31/2020 11:19:10 79.86, 31.53 76.02 3.53 33
8 03/31/2020 12:10:45 -79.84,-161.15 104.01 03/31/2020 12:09:51 -79.85,-161.24 104.02 2.45 54




NCC Satellite Simultaneous Nadir Overpasses (SNOs) Prediction Service
